Location: Tel Aviv
(32.0670°N, 34.7670°E)
Time: 07:07:52
(UTC+02:00)

S-56A Canister/Altair - All Passes

Search period start: 29 November 2023 00:00
Search period end: 09 December 2023 00:00
Orbit: 640 x 2489 km, 38.9° (Epoch: 28 November)

Date Brightness Start Highest point End Pass type
(mag) Time Alt. Az. Time Alt. Az. Time Alt. Az.
29 Nov - 10:45:12 10° S 10:48:17 17° SE 10:51:15 10° E daylight
29 Nov - 12:47:00 10° WSW 12:51:28 84° NNW 12:56:33 10° ENE daylight
29 Nov - 14:51:04 10° WNW 14:55:42 42° N 15:01:53 10° ENE daylight
29 Nov - 16:54:30 10° WNW 17:00:23 65° NNE 17:09:17 10° E visible
29 Nov - 18:57:53 10° WNW 19:05:06 55° SSW 19:16:00 10° SE visible
29 Nov - 21:03:58 10° W 21:10:17 19° SW 21:18:02 10° S visible
30 Nov - 10:12:45 10° S 10:15:17 14° SE 10:17:40 10° ESE daylight
30 Nov - 12:13:59 10° WSW 12:18:29 83° SSE 12:23:17 10° ENE daylight
30 Nov - 14:18:06 10° WNW 14:22:32 41° N 14:28:11 10° ENE daylight
30 Nov - 16:21:40 10° WNW 16:27:08 58° NNE 16:35:12 10° E daylight
30 Nov - 18:24:54 10° WNW 18:31:41 61° SSW 18:42:01 10° SE visible
30 Nov - 20:30:20 10° W 20:36:42 21° SW 20:44:48 10° S visible
01 Dec - 09:40:33 10° SSE 09:42:14 12° SE 09:43:50 10° ESE daylight
01 Dec - 11:40:56 10° SW 11:45:32 69° SSE 11:50:06 10° ENE daylight
01 Dec - 13:45:05 10° WNW 13:49:24 42° N 13:54:37 10° ENE daylight
01 Dec - 15:48:49 10° WNW 15:53:56 52° NNE 16:01:11 10° E daylight
01 Dec - 17:51:59 10° WNW 17:58:20 67° SSW 18:08:03 10° SE visible
01 Dec - 19:56:53 10° W 20:03:11 23° SW 20:11:26 10° S visible
02 Dec - 11:07:51 10° SW 11:12:34 57° SSE 11:16:59 10° ENE daylight
02 Dec - 13:12:02 10° W 13:16:18 43° N 13:21:11 10° ENE daylight
02 Dec - 15:15:58 10° WNW 15:20:45 47° NNE 15:27:16 10° E daylight
02 Dec - 17:19:05 10° WNW 17:25:03 74° SSW 17:34:06 10° SE visible
02 Dec - 19:23:33 10° W 19:29:43 26° SW 19:37:59 10° SSE visible
03 Dec - 10:34:44 10° SW 10:39:36 47° SSE 10:43:54 10° ENE daylight
03 Dec - 12:38:54 10° W 12:43:13 46° NNW 12:47:53 10° ENE daylight
03 Dec - 14:43:05 10° WNW 14:47:36 43° N 14:53:27 10° E daylight
03 Dec - 16:46:13 10° WNW 16:51:49 83° SSW 17:00:11 10° ESE visible
03 Dec - 18:50:20 10° W 18:56:17 28° SSW 19:04:27 10° SSE visible
04 Dec - 10:01:35 10° SW 10:06:36 39° SSE 10:10:50 10° E daylight
04 Dec - 12:05:42 10° W 12:10:10 51° NNW 12:14:41 10° ENE daylight
04 Dec - 14:10:09 10° WNW 14:14:27 39° N 14:19:46 10° ENE daylight
04 Dec - 16:13:22 10° WNW 16:18:38 88° NNE 16:26:19 10° ESE daylight
04 Dec - 18:17:13 10° W 18:22:56 31° SSW 18:30:54 10° SSE visible
05 Dec - 09:28:24 10° SSW 09:33:35 34° SSE 09:37:48 10° E daylight
05 Dec - 11:32:25 10° W 11:37:09 58° NNW 11:41:35 10° ENE daylight
05 Dec - 13:37:10 10° WNW 13:41:21 37° N 13:46:12 10° ENE daylight
05 Dec - 15:40:31 10° WNW 15:45:30 78° NNE 15:52:30 10° ESE daylight
05 Dec - 17:44:08 10° W 17:49:37 34° SSW 17:57:19 10° SSE visible
06 Dec - 08:55:11 10° SSW 09:00:31 29° SSE 09:04:44 10° E daylight
06 Dec - 10:59:04 10° WSW 11:04:08 67° NNW 11:08:34 10° ENE daylight
06 Dec - 13:04:05 10° WNW 13:08:13 36° N 13:12:45 10° ENE daylight
06 Dec - 15:07:40 10° WNW 15:12:24 68° NNE 15:18:45 10° ESE daylight
06 Dec - 17:11:08 10° W 17:16:22 37° SSW 17:23:45 10° SSE visible
07 Dec - 08:21:57 10° SSW 08:27:24 26° SSE 08:31:40 10° E daylight
07 Dec - 10:25:39 10° WSW 10:31:06 78° NNW 10:35:36 10° ENE daylight
07 Dec - 12:30:56 10° WNW 12:35:07 35° N 12:39:26 10° ENE daylight
07 Dec - 14:34:47 10° WNW 14:39:19 59° NNE 14:45:05 10° E daylight
07 Dec - 16:38:09 10° W 16:43:10 41° SSW 16:50:11 10° SE daylight
07 Dec - 18:47:15 10° SW 18:47:36 10° SW 18:47:57 10° SSW visible
08 Dec - 07:48:42 10° SSW 07:54:14 23° SSE 07:58:33 10° E daylight
08 Dec - 09:52:10 10° WSW 09:58:04 90° NNW 10:02:40 10° ENE daylight
08 Dec - 11:57:39 10° WNW 12:02:01 36° N 12:06:14 10° ENE daylight
08 Dec - 14:01:51 10° WNW 14:06:15 52° NNE 14:11:30 10° E daylight
08 Dec - 16:05:12 10° WNW 16:10:02 47° SSW 16:16:39 10° SE daylight
08 Dec - 18:12:10 10° SW 18:14:16 11° SW 18:16:35 10° SSW visible
